KUIPER-00247

导读 | 豆包AI

KUIPER-00247是美国亚马逊“柯伊伯计划”卫星互联网项目的低轨卫星,于2025年12月15日发射入轨。该项目计划部署超3000颗低轨卫星,旨在为全球网络覆盖不足地区提供高速宽带服务。KUIPER系列卫星采用Ka频段相控阵天线,支持激光星间链路,能实现动态容量分配,提供低延迟高速互联,将助力亚马逊推进空天地一体化网络建设。

Basic Information
目录编号:
67152
目录名称:
KUIPER-00247
国际标识:
2025-301V
轨道中心:
EARTH
卫星名称:
KUIPER-00247
卫星全名:
KUIPER-00247
卫星状态:
在轨 (已飞行161 天)
发射日期:
2025-12-15 UTC
国别 :
美国 (US)
星等 :
--
Orbit Information
数据来源 国际轨道数据
星历时间: 2026-05-24T10:21:19+0800
1天前
查看轨道信息
半长轴: 7007.7km
偏心率: 0.0000857
轨道倾角: 51.896°
近地点辐角 81.156°
升交点赤经 84.648°
平近点角 278.950°
近地点: 628.962km
远地点: 630.164km
周期: 97.302分钟
每日圈数: 14.799245
Detailed Information
使用方式:
暂无
2D Orbit Map
3D Orbit Map
Orbit Altitude Analysis Chart
Orbit Inclination Analysis Chart
Orbit Comprehensive Analysis Chart
View Comprehensive Chart